Location: Unspecified
(0.0000°N, 0.0000°E)
Time: 13:40:50
(UTC+00:00)

deb Explorer IX - Pass Details

Date: 19 November 2019
Orbit: 545 x 1105 km, 38.8° (Epoch: 08 December)

Event Time Altitude Azimuth Distance (km) Brightness Sun altitude
Rises 20:17:18 0° 219° (SW) 3,810 ? -35.4°
Reaches altitude 10° 20:20:02 10° 215° (SW) 2,901 ? -36.1°
Enters shadow 20:24:43 40° 190° (S) 1,571 ? -37.1°
Maximum altitude 20:27:04 54° 139° (SE) 1,312 - -37.7°
Drops below altitude 10° 20:34:07 10° 63° (ENE) 2,919 - -39.3°
Sets 20:36:52 0° 59° (ENE) 3,835 - -39.9°
